Flag for Germany Weather past 2 weeks in Hildesheim, Lower Saxony, Germany

Now
88 °F

Sunny.


Feels Like: 85 °F
Forecast: 59 / 66 °F
Wind: 12 mph from West

Location: Braunschweig

Current Time: Jul 7, 2015 at 3:48:22 PM

Latest Report: Jul 7, 2015 at 3:20 PM


Visibility: 10 mi

Pressure: 29.80 "Hg

Humidity: 27%

Dew point: 50 °F

Location of HildesheimLocation

Historic Weather in Hildesheim — Graph

°F

Hildesheim temperature yesterday

Maximum temperature yesterday: 75 °F (at 3:20 PM)
Minimum temperature yesterday: 63 °F (at 6:50 AM)
Average temperature yesterday: 70 °F

Past Weeks' High & Low Weather Summary

 TemperatureHumidityPressure
High99 °F (Jul 4, 4:50 PM)100% (Jun 22, 7:50 PM)30.27 "Hg (Jun 22, 7:50 PM)
Low50 °F (Jun 23, 6:50 AM)27% (Jul 4, 4:50 PM)29.68 "Hg (Jun 22, 6:50 PM)
Average70 °F60%30.09 "Hg
* Reported Jun 22 2:20 PM — Jul 7 2:50 PM, Hildesheim, Weather by CustomWeather, © 2015

Note: Actual official high and low records may vary slightly from our data, if they occured in-between our weather recording intervals... More about our weather records

Advertising

Hildesheim weather history for previous 24 hours

 ConditionsComfort  
Time TempWeatherWind HumidityBarometerVisibility
2:50 PM
Tue, Jul 7
86 °FSunny.12 mph31%29.80 "Hg10 mi
2:20 PM86 °FPassing clouds.13 mph33%29.83 "HgN/A
1:50 PM84 °FPassing clouds.10 mph37%29.83 "HgN/A
1:20 PM82 °FPassing clouds.8 mph40%29.86 "HgN/A
12:50 PM82 °FPassing clouds.8 mph37%29.86 "HgN/A
12:20 PM82 °FPassing clouds.6 mph35%29.89 "HgN/A
11:50 AM81 °FSunny.6 mph32%29.89 "Hg10 mi
11:20 AM79 °FPassing clouds.6 mph39%29.92 "HgN/A
10:50 AM79 °FPassing clouds.8 mph42%29.92 "HgN/A
10:20 AM77 °FPassing clouds.8 mph47%29.92 "HgN/A
9:50 AM73 °FSunny.8 mph53%29.95 "Hg10 mi
9:20 AM73 °FPassing clouds.8 mph53%29.95 "HgN/A
8:50 AM72 °FPassing clouds.7 mph65%29.98 "HgN/A
8:20 AM68 °FPassing clouds.6 mph69%29.98 "HgN/A
7:50 AM64 °FSunny.5 mph83%30.01 "Hg10 mi
7:20 AM61 °FSunny.3 mph94%30.01 "Hg10 mi
6:50 AM59 °FSunny.5 mph100%30.01 "Hg10 mi
9:50 PM
Mon, Jul 6
64 °FSunny.2 mph68%30.09 "Hg10 mi
9:20 PM68 °FSunny.3 mph60%30.09 "Hg10 mi
8:50 PM72 °FSunny.7 mph50%30.09 "Hg10 mi
8:20 PM72 °FMild.8 mph50%30.09 "HgN/A
7:50 PM73 °FPassing clouds.8 mph47%30.09 "HgN/A
7:20 PM73 °FSunny.10 mph44%30.09 "Hg10 mi
6:50 PM73 °FSunny.12 mph44%30.09 "Hg10 mi
6:20 PM75 °FSunny.13 mph44%30.09 "Hg10 mi
5:50 PM75 °FSunny.12 mph41%30.12 "Hg10 mi
5:20 PM75 °FSunny.9 mph44%30.12 "Hg10 mi
4:50 PM73 °FSunny.9 mph44%30.12 "Hg10 mi
4:20 PM72 °FSunny.9 mph47%30.12 "Hg10 mi
3:50 PM73 °FSunny.12 mph47%30.12 "Hg10 mi
3:20 PM75 °FScattered clouds.12 mph47%30.12 "HgN/A
Weather by CustomWeather, © 2015

See weather overviewHow to use our weather pages